Temperature
19 17 17 17 17 18 18 17 17 18 18 18 17 17 16 17 16 16 17 17 17 17 18 18 17 17 17 17 17 17 17 16 16 16 16 16 16 16 16 16 15 15 15 15
17 17 18 18 18 18 18 18 18 18 19 18 17 17 17 16 16 17 17 17 17 17 17 17 17 17 17 17 17 17 17 16 16 16 16 16 16 15 15 15 15 15 15 15
18 18 19 19 18 18 18 18 18 18 18 18 18 17 17 16 17 17 17 17 17 17 18 18 18 17 17 17 17 17 17 17 16 16 16 16 16 15 15 15 15 15 15 15
18 19 19 19 18 18 18 19 18 18 17 16 17 16 16 16 15 16 17 17 17 17 18 18 18 18 17 17 17 17 17 16 16 16 16 16 16 16 15 15 15 15 15 15
18 19 19 19 19 19 18 19 18 18 17 16 16 16 16 15 15 16 16 17 18 18 18 18 18 18 18 17 17 17 17 16 16 16 16 16 16 16 15 15 15 15 15 15
18 19 19 19 19 19 18 18 17 15 15 16 16 16 16 15 16 16 17 17 18 18 18 18 18 18 18 17 17 17 17 16 16 16 16 15 15 15 15 15 15 15 15 15
18 19 19 20 19 19 18 16 16 16 15 15 16 16 16 17 16 17 17 18 18 18 18 18 18 18 18 17 17 17 17 17 16 16 16 16 15 15 15 15 15 15 15 15
17 17 19 19 19 18 17 17 16 16 15 15 16 16 17 18 18 18 18 19 18 18 18 18 18 18 18 18 17 17 17 17 16 16 16 16 16 15 15 15 15 15 15 15
17 17 19 19 19 18 17 16 16 15 16 16 15 16 17 18 18 17 17 18 18 18 18 19 19 18 18 18 18 17 17 17 16 16 16 16 16 16 15 15 15 15 15 15
17 17 18 19 19 18 18 16 14 15 16 16 16 16 17 18 18 17 16 17 18 19 19 19 19 19 18 18 18 17 17 17 17 16 16 16 16 16 15 15 15 15 15 15
17 17 17 18 18 18 17 16 15 14 14 15 16 16 17 17 17 17 17 18 18 19 19 19 19 19 18 18 18 18 17 17 17 16 16 16 16 16 16 15 15 15 15 15
16 15 16 17 18 18 17 17 15 16 15 14 15 16 18 17 17 17 18 18 19 19 19 19 19 19 18 18 18 17 17 17 17 17 16 16 16 16 16 16 16 15 15 15
16 15 16 16 17 17 17 17 16 15 14 13 15 16 17 17 17 18 18 19 19 19 19 19 19 19 18 18 18 18 17 17 17 17 16 16 16 16 16 16 16 15 15 15
16 15 15 16 16 16 17 17 16 15 14 14 15 16 17 17 17 17 18 19 19 19 19 19 19 19 19 18 18 18 17 17 17 17 16 16 16 16 16 16 16 16 15 15
16 15 16 16 17 17 17 17 16 16 15 15 16 16 17 17 17 18 18 19 19 19 19 19 19 19 18 18 18 18 17 17 17 17 16 16 16 16 16 16 16 16 15 15
14 15 16 16 17 17 17 17 17 17 17 16 16 16 17 18 18 18 18 18 18 19 19 19 19 19 18 18 18 18 17 17 17 17 16 16 16 16 16 16 16 16 15 15
14 14 15 15 16 17 16 17 17 17 17 17 17 17 17 17 17 18 18 18 19 19 19 19 19 19 19 18 18 18 18 17 17 17 16 16 16 16 16 16 16 16 15 15
13 13 13 14 15 16 17 17 18 17 17 16 17 17 17 17 18 19 19 19 19 19 19 19 19 19 19 19 18 18 18 17 17 17 17 17 16 16 16 16 16 16 15 15
13 13 13 13 14 15 16 17 17 17 17 16 16 16 17 18 17 18 20 20 20 20 20 20 20 19 19 19 18 18 18 17 17 17 17 17 16 16 16 16 16 15 15 15
12 13 13 13 15 15 16 17 17 17 17 17 17 16 16 16 15 17 20 19 20 20 20 20 19 19 19 19 18 18 18 18 17 17 17 17 16 16 16 16 15 15 15 15
13 12 12 13 14 14 15 16 17 16 16 17 18 17 17 16 17 19 19 19 19 20 20 19 19 19 19 18 18 18 18 18 18 17 17 17 16 16 16 16 15 15 15 15
13 12 12 12 13 15 15 15 15 16 17 18 18 18 18 18 18 19 19 19 19 19 19 19 19 19 18 18 18 18 18 18 17 17 17 17 16 16 16 15 15 15 14 14
12 12 12 12 14 15 15 15 17 17 17 18 18 18 18 18 18 18 18 18 19 19 19 19 19 18 18 18 18 18 18 17 17 17 16 16 16 16 15 15 15 15 14 14
11 11 11 11 13 14 15 16 16 17 17 17 18 18 18 18 18 18 18 18 18 18 18 18 18 18 18 18 17 17 17 17 17 16 16 16 16 15 15 15 15 14 14 14
11 11 11 11 12 14 15 16 16 16 17 17 17 17 17 18 18 18 17 17 17 17 17 17 17 18 17 17 17 17 17 16 16 16 16 15 15 15 15 14 14 14 14 14
10 11 11 12 13 13 15 15 16 16 16 16 17 17 17 17 17 17 17 17 17 17 17 17 17 17 17 17 16 16 16 16 16 16 15 15 15 14 14 14 14 13 13 13
Wind_Speed
4 5 4 6 5 5 5 4 2 3 3 3 4 5 5 6 6 7 6 6 6 6 4 3 3 3 4 4 4 4 5 4 4 3 3 3 2 2 2 4 6 5 5 6
5 1 5 4 5 5 4 3 1 2 1 3 3 4 4 6 8 9 10 9 9 6 4 4 4 4 4 5 4 4 4 4 4 3 2 2 2 1 1 3 5 6 6 5
5 4 3 5 4 4 2 5 4 3 1 2 1 4 4 4 5 6 7 8 8 9 8 7 6 5 5 5 6 6 5 4 4 4 3 3 3 3 3 3 2 4 5 6
2 2 4 4 3 5 3 4 5 3 2 2 1 3 6 5 5 8 9 8 9 9 8 7 7 6 6 6 6 6 5 5 4 4 5 5 3 2 0 0 1 3 5 5
3 3 5 5 5 6 4 2 4 2 3 1 0 2 7 2 6 10 11 11 10 10 10 9 9 8 7 6 5 5 5 4 4 4 5 5 3 2 1 1 2 3 3 5
2 2 4 5 2 5 5 6 6 5 4 2 3 4 6 4 7 7 11 11 11 11 10 9 7 6 5 4 5 6 6 5 4 5 5 5 5 4 3 2 1 1 2 2
1 2 1 3 4 3 5 6 3 3 2 5 3 3 8 7 7 9 10 12 12 11 10 9 8 8 7 7 6 6 7 5 5 5 4 5 5 5 4 3 2 1 0 1
3 3 3 3 6 6 5 7 6 4 4 4 2 5 7 6 5 5 6 8 9 10 10 10 10 10 9 8 8 8 7 6 6 5 5 4 4 3 3 3 2 2 2 1
6 4 2 2 3 9 7 4 6 6 2 1 5 6 8 3 2 0 3 5 8 10 11 11 10 10 9 9 9 9 8 7 6 6 5 5 5 4 4 3 2 2 2 1
6 3 2 1 4 3 5 8 6 5 3 2 5 5 5 6 4 2 3 7 8 8 9 9 9 9 9 9 8 7 8 8 7 6 6 5 5 5 4 3 3 3 2 2
4 4 1 1 4 5 4 4 5 4 4 5 2 6 5 6 5 4 6 6 8 9 10 10 9 8 8 7 7 7 7 6 6 6 5 5 4 4 4 3 3 3 3 3
3 4 2 5 4 4 5 7 7 5 4 4 3 7 5 5 4 4 4 5 6 7 8 8 8 7 7 7 8 8 7 7 7 6 6 5 4 4 4 4 4 3 3 3
5 5 3 3 3 0 2 4 5 5 5 5 4 7 4 2 2 2 3 3 4 5 5 5 6 7 7 7 8 8 8 8 6 6 6 5 5 5 5 4 4 4 4 3
5 4 6 8 6 4 3 4 6 6 4 5 7 8 7 5 4 3 2 3 4 5 6 6 6 7 7 7 7 7 7 7 7 7 7 6 6 6 5 4 4 4 4 4
5 3 4 5 4 4 5 7 8 7 8 8 8 8 9 7 6 5 3 3 4 5 6 6 7 7 7 7 6 6 6 6 7 7 7 7 6 5 5 5 4 4 4 4
3 4 2 2 3 4 5 7 9 8 7 7 6 8 8 5 3 3 4 6 6 7 7 7 7 7 8 8 7 7 7 6 7 7 7 5 5 5 5 5 4 4 4 4
3 5 3 3 2 0 6 9 10 7 7 8 10 10 4 3 5 6 7 8 9 9 8 8 8 8 8 9 9 9 8 6 7 6 6 5 6 5 5 5 5 5 4 4
6 5 3 2 2 6 8 5 7 8 7 7 6 5 5 7 6 5 6 8 8 8 8 9 8 8 7 7 7 7 6 7 7 6 6 5 6 6 5 5 5 4 3 4
6 6 4 3 4 6 7 4 6 7 5 5 6 5 4 2 1 3 5 7 8 8 8 8 8 7 7 7 7 7 7 7 6 6 6 6 7 6 6 6 5 4 4 4
3 4 5 4 4 6 7 3 2 4 4 5 5 5 3 4 1 6 4 4 5 4 5 5 6 6 6 6 7 8 7 7 8 8 7 6 7 7 7 7 5 4 4 4
3 3 5 5 5 7 6 3 4 5 7 4 5 5 6 6 7 5 2 2 4 4 4 5 6 7 7 7 8 8 7 8 8 6 5 5 6 7 6 5 4 4 4 4
5 5 5 5 4 7 2 4 6 6 4 3 4 5 6 4 2 1 2 3 3 3 4 6 6 6 5 7 9 8 8 7 5 6 5 5 5 5 5 5 5 4 5 4
5 6 5 7 6 4 2 4 4 2 3 3 3 3 4 3 2 2 2 2 3 3 4 5 6 6 5 6 8 9 7 5 6 6 5 5 5 4 5 6 6 4 4 4
3 2 3 3 5 5 4 4 3 2 3 3 3 3 4 3 3 2 2 2 2 3 3 4 6 6 5 5 6 6 5 6 7 6 5 5 5 4 4 4 5 5 5 5
4 3 3 4 5 4 4 3 3 4 3 2 1 1 3 4 3 3 2 2 2 3 3 4 5 6 6 5 5 4 5 7 7 6 5 5 4 5 4 4 4 5 6 6
4 5 6 6 6 4 6 5 3 2 3 1 1 2 1 2 3 2 2 2 2 2 3 4 4 5 5 5 5 4 5 7 7 6 5 5 4 4 4 3 1 2 3 4
Wind_Direction
52 88 164 195 183 165 148 150 184 240 217 165 204 226 222 195 188 193 199 202 210 221 228 196 167 152 138 134 139 148 146 146 135 119 110 94 71 42 36 41 53 62 72 74
58 228 217 173 152 132 137 148 186 293 207 167 208 249 232 200 204 201 200 204 210 214 207 198 182 169 166 164 163 160 162 162 157 141 126 118 114 80 51 32 44 48 59 66
169 229 174 146 150 150 174 181 190 204 55 57 92 309 249 227 212 209 207 204 209 209 203 202 194 188 178 178 179 176 169 164 160 142 114 90 66 48 33 23 21 24 50 64
194 232 152 152 180 160 216 204 168 154 118 289 116 286 276 229 220 219 216 208 211 212 203 200 198 194 192 195 185 170 165 162 156 149 140 135 129 128 150 344 17 28 46 61
215 177 161 186 204 168 192 140 121 114 129 9 329 215 286 222 230 232 222 214 210 207 201 200 200 199 196 189 179 171 161 160 157 150 146 136 131 135 109 66 58 43 34 49
225 208 182 190 165 144 129 78 63 52 72 309 241 190 282 234 223 230 219 215 207 202 201 201 196 184 185 180 171 167 164 169 162 154 152 152 151 151 134 117 96 51 28 27
325 300 226 147 109 82 100 98 52 7 6 261 247 203 255 253 231 222 215 211 204 196 193 192 188 186 187 183 179 175 170 175 169 164 168 170 167 163 163 168 171 152 98 20
169 262 229 179 166 168 164 144 157 190 223 278 286 237 256 269 259 227 211 198 188 187 190 193 193 190 191 189 182 178 179 182 176 175 181 175 165 158 171 178 180 180 185 204
173 232 265 200 156 143 144 168 161 138 166 272 283 288 302 305 335 75 167 170 187 192 193 196 194 190 191 189 187 185 181 181 182 182 178 175 171 173 181 176 178 182 190 181
158 195 256 198 89 58 148 144 112 126 156 254 295 288 270 291 288 273 199 198 201 195 193 194 193 192 191 189 185 180 180 184 181 175 180 184 183 184 182 169 180 189 187 153
144 158 274 109 173 177 117 125 128 133 157 161 258 276 240 239 249 238 227 211 199 193 192 192 195 191 183 174 173 178 182 179 177 179 181 177 181 180 180 187 196 194 181 165
138 130 193 239 244 181 166 169 153 161 204 174 180 267 279 248 250 231 224 209 196 193 190 187 184 173 172 176 179 182 183 185 186 179 175 182 180 176 187 200 199 184 178 170
138 120 105 350 341 125 168 168 161 138 133 161 180 260 305 327 297 238 214 198 185 180 173 167 167 171 178 181 183 185 186 189 182 171 173 179 180 184 199 202 189 178 170 168
122 131 171 196 213 196 201 188 163 143 167 199 218 245 289 295 279 266 228 194 177 173 169 165 173 181 183 183 184 186 189 184 178 173 176 186 194 196 198 189 182 180 174 174
118 161 201 221 216 193 211 209 186 188 191 196 226 229 252 248 234 232 214 181 165 169 173 179 183 185 182 181 183 183 186 181 177 175 184 198 196 188 181 183 184 178 178 186
114 161 175 246 228 215 235 225 206 211 205 212 231 251 251 245 215 204 199 185 185 189 190 189 186 183 186 187 187 183 186 184 174 179 192 192 180 177 180 183 180 176 182 181
156 144 149 237 267 69 255 227 208 205 201 192 219 235 227 215 220 213 205 196 199 201 196 192 191 190 193 192 186 188 189 176 172 181 185 182 179 180 183 175 171 180 185 179
157 141 145 166 129 226 245 237 201 203 220 208 220 229 211 217 226 226 207 199 206 204 199 196 193 192 193 186 182 178 168 170 178 183 186 184 181 185 178 169 176 180 176 180
175 152 144 154 203 264 284 244 187 189 234 217 214 234 226 213 33 297 224 200 207 204 197 196 192 186 178 176 173 163 166 173 178 189 194 189 184 180 175 178 184 177 173 186
117 137 145 160 185 230 247 265 204 141 255 244 205 216 205 134 170 258 246 212 215 203 189 183 172 160 166 174 163 161 171 176 193 202 202 190 182 180 183 187 180 172 173 189
119 125 170 189 213 251 261 279 117 157 238 252 202 198 178 188 212 239 236 218 204 192 178 164 158 167 180 169 161 168 175 195 205 196 185 178 181 184 181 172 167 164 166 166
175 170 182 170 203 245 279 126 172 220 255 232 209 198 194 214 228 214 190 191 178 170 159 156 162 176 170 162 164 174 193 203 181 168 167 174 179 180 171 162 164 160 160 165
193 190 188 193 215 246 238 219 249 236 239 233 219 222 190 188 204 200 199 187 179 173 170 162 162 163 161 168 172 185 199 175 158 157 167 173 169 170 162 164 165 162 164 170
245 174 165 235 258 266 275 284 304 277 255 254 224 196 175 178 182 175 180 186 176 172 168 163 151 153 169 178 184 192 174 156 156 165 171 166 164 164 161 163 167 170 177 183
218 175 187 239 265 293 298 290 296 314 323 348 55 163 174 161 167 171 176 195 186 175 165 160 166 170 178 174 176 171 159 155 159 168 170 168 169 169 170 175 183 185 194 190
206 190 192 225 229 213 258 281 294 313 312 316 62 31 43 162 171 168 176 202 179 170 165 159 166 170 172 166 163 160 158 158 156 160 168 171 170 168 168 169 176 217 202 200
Height
1518 1524 1529 1528 1528 1530 1533 1538 1540 1538 1533 1535 1538 1538 1537 1537 1538 1540 1541 1543 1544 1546 1548 1550 1551 1553 1554 1555 1557 1558 1559 1560 1560 1561 1561 1562 1562 1563 1563 1563 1563 1563 1563 1563
1524 1527 1523 1523 1525 1528 1533 1538 1539 1536 1532 1535 1538 1538 1535 1535 1536 1537 1538 1540 1542 1544 1547 1549 1550 1552 1553 1555 1556 1557 1559 1560 1560 1561 1562 1562 1563 1563 1564 1564 1564 1564 1564 1564
1524 1523 1520 1523 1527 1531 1533 1537 1537 1538 1534 1535 1538 1540 1536 1533 1534 1535 1537 1538 1540 1542 1544 1546 1548 1550 1552 1554 1555 1557 1558 1559 1560 1561 1562 1563 1563 1564 1564 1564 1564 1564 1564 1564
1521 1519 1520 1524 1527 1528 1535 1529 1531 1534 1541 1546 1542 1553 1538 1533 1533 1532 1533 1535 1537 1539 1542 1544 1546 1548 1550 1553 1554 1556 1557 1559 1560 1561 1562 1563 1563 1564 1564 1565 1565 1565 1565 1565
1521 1519 1521 1524 1524 1524 1529 1526 1530 1534 1540 1547 1545 1550 1542 1533 1533 1529 1528 1530 1533 1536 1539 1541 1544 1546 1549 1551 1553 1555 1557 1558 1560 1561 1562 1562 1563 1564 1565 1565 1565 1565 1565 1565
1518 1517 1517 1519 1519 1521 1525 1530 1535 1541 1546 1556 1547 1551 1545 1534 1527 1523 1523 1525 1528 1532 1535 1539 1542 1544 1547 1550 1552 1554 1556 1557 1559 1560 1561 1562 1563 1564 1565 1565 1566 1566 1566 1566
1521 1518 1516 1516 1521 1524 1527 1540 1554 1557 1562 1559 1544 1546 1539 1521 1518 1517 1517 1520 1523 1528 1532 1535 1539 1541 1544 1547 1550 1552 1554 1556 1558 1559 1561 1562 1563 1564 1565 1565 1566 1566 1566 1566
1528 1530 1517 1515 1518 1525 1528 1535 1553 1562 1563 1557 1545 1546 1529 1515 1513 1512 1514 1516 1520 1525 1529 1532 1535 1539 1542 1544 1547 1550 1552 1554 1556 1558 1560 1561 1563 1564 1564 1565 1566 1566 1566 1566
1526 1527 1514 1513 1514 1518 1529 1534 1535 1548 1551 1556 1550 1538 1523 1513 1512 1511 1512 1515 1518 1521 1525 1529 1532 1536 1539 1542 1545 1548 1550 1553 1555 1557 1558 1560 1561 1563 1564 1564 1565 1566 1566 1566
1516 1524 1516 1514 1514 1517 1521 1527 1540 1548 1557 1560 1550 1542 1534 1518 1514 1512 1512 1513 1515 1519 1523 1526 1530 1533 1537 1540 1543 1546 1549 1551 1553 1555 1557 1558 1560 1562 1563 1563 1564 1565 1565 1566
1512 1521 1521 1517 1519 1522 1525 1529 1534 1544 1547 1556 1557 1545 1519 1515 1512 1511 1511 1511 1513 1516 1520 1523 1527 1531 1534 1538 1541 1544 1546 1549 1551 1553 1555 1557 1559 1560 1561 1562 1563 1564 1565 1565
1512 1520 1526 1520 1514 1513 1517 1522 1530 1541 1546 1548 1552 1542 1511 1511 1509 1509 1510 1510 1512 1515 1518 1521 1525 1528 1532 1535 1538 1541 1544 1546 1549 1551 1553 1555 1557 1559 1560 1561 1562 1563 1564 1565
1511 1520 1530 1529 1525 1518 1518 1519 1523 1530 1540 1548 1549 1536 1510 1509 1508 1508 1509 1510 1512 1514 1517 1520 1523 1526 1529 1533 1536 1539 1541 1544 1547 1549 1551 1553 1555 1557 1558 1559 1561 1562 1563 1564
1506 1517 1524 1528 1523 1518 1519 1518 1520 1527 1538 1542 1537 1527 1514 1510 1509 1508 1508 1509 1511 1513 1515 1518 1521 1524 1527 1530 1533 1536 1539 1542 1544 1547 1549 1551 1553 1554 1556 1558 1559 1560 1561 1562
1505 1515 1515 1513 1511 1512 1513 1513 1516 1520 1523 1529 1524 1521 1512 1508 1507 1506 1507 1508 1510 1511 1514 1516 1519 1522 1525 1527 1530 1534 1536 1539 1542 1544 1546 1548 1550 1552 1554 1555 1557 1558 1559 1560
1506 1512 1513 1513 1509 1510 1511 1509 1511 1513 1514 1517 1516 1514 1504 1503 1504 1504 1505 1506 1507 1509 1511 1514 1517 1519 1522 1525 1527 1530 1533 1536 1539 1541 1543 1546 1548 1549 1551 1553 1554 1556 1557 1558
1508 1511 1517 1519 1512 1511 1515 1505 1505 1506 1506 1508 1512 1506 1501 1502 1502 1501 1502 1503 1505 1507 1509 1511 1514 1517 1519 1522 1525 1528 1531 1534 1536 1538 1540 1543 1545 1546 1548 1550 1552 1553 1554 1555
1506 1511 1518 1520 1518 1522 1506 1494 1495 1498 1499 1500 1500 1499 1498 1498 1498 1499 1499 1500 1502 1504 1506 1509 1511 1514 1517 1520 1523 1525 1528 1531 1533 1536 1538 1540 1542 1544 1546 1547 1549 1550 1552 1553
1499 1507 1517 1521 1521 1514 1500 1493 1494 1497 1498 1495 1496 1495 1496 1496 1497 1497 1497 1498 1500 1501 1504 1506 1509 1512 1515 1518 1520 1523 1526 1528 1530 1532 1535 1537 1539 1540 1542 1544 1545 1547 1549 1550
1499 1502 1513 1518 1518 1516 1500 1489 1488 1493 1499 1491 1491 1493 1494 1496 1501 1497 1495 1496 1498 1499 1502 1504 1507 1510 1513 1515 1518 1520 1522 1524 1526 1529 1531 1534 1536 1537 1539 1541 1543 1544 1546 1547
1503 1507 1511 1514 1514 1506 1493 1488 1489 1502 1498 1488 1488 1489 1491 1493 1494 1493 1493 1494 1496 1498 1500 1502 1505 1507 1510 1513 1515 1517 1519 1521 1523 1526 1529 1531 1533 1535 1536 1538 1540 1542 1543 1545
1502 1506 1509 1512 1512 1506 1489 1489 1492 1491 1486 1485 1485 1486 1487 1488 1489 1490 1491 1492 1494 1495 1497 1500 1502 1505 1507 1510 1512 1514 1516 1518 1521 1524 1526 1527 1530 1532 1533 1535 1537 1539 1540 1542
1497 1497 1499 1500 1498 1489 1486 1487 1486 1485 1484 1483 1483 1484 1485 1486 1487 1488 1489 1491 1492 1494 1496 1498 1500 1502 1505 1507 1509 1511 1513 1516 1518 1520 1522 1524 1526 1528 1530 1532 1533 1535 1537 1538
1493 1492 1494 1494 1488 1485 1484 1484 1483 1483 1482 1481 1481 1482 1483 1484 1485 1487 1488 1489 1490 1492 1494 1496 1498 1500 1502 1504 1507 1509 1512 1514 1516 1517 1519 1521 1523 1525 1527 1528 1530 1531 1533 1534
1488 1490 1491 1489 1485 1483 1481 1482 1481 1481 1480 1479 1479 1480 1481 1482 1484 1485 1486 1487 1488 1490 1492 1494 1496 1498 1500 1502 1504 1507 1509 1511 1513 1515 1516 1518 1520 1522 1523 1525 1527 1528 1530 1531
1484 1486 1487 1485 1481 1481 1480 1480 1480 1479 1478 1478 1477 1478 1479 1481 1482 1483 1485 1486 1487 1488 1490 1492 1494 1496 1498 1500 1502 1504 1506 1508 1510 1511 1513 1515 1517 1519 1520 1522 1524 1525 1527 1528